FLOCK 4BE-29 (60509 NORAD) Tracking and Keplerian Element Data

This shows tracking and keplerian element data for the satellite.

Feedback or suggestion? Click here.




ElementValue
Catalog60509
NameFLOCK 4BE-29
Epoch Orbit863
Epoch Day286.67772063
Epoch Year2024
RAAN1.4276
Inclination97.4406
Eccentricity0.000345
Argument of Perigee315.2381
Mean Anonmoly44.8576
Mean Motion15.20359806
Decay Rate0.00020907
L11 60509U 24149AT 24286.67772063 .00020907 00000+0 96167-3 0 9999
L22 60509 97.4406 1.4276 0003450 315.2381 44.8576 15.20359806 8637



Live tracking and technical data element details for FLOCK 4BE-29 (NORAD 60509). FLOCK 4BE-29 can be tracked NOW for your location showing map with azimuth and elevation plus other details from your city location.







IsCatalogInMostPopularTable: catalog: 60509, numindb: 7
Update: records affected: 1



GetName: 60509 FLOCK 4BE-29

Hit Count: updated at: Wed, 04 Dec 2024 18:11:17 GMT